Вернуться в каталог

SL-6 R/B(2)

АктивенHEO
NORAD 15439·ROCKET BODY·🇷🇺 Russia

Запущен Dec 14, 1984 с Plesetsk Cosmodrome

Loading…

Ближайшие Пролёты (ближайшие 24 часа)

TLE

СвежийSource: Space-Track

Эпоха: Sep 11, 2026, 18:06 UTC

1 15439U 84124H   26254.75441279  .00000684  00000-0  36115-3 0  9996
2 15439  62.7086 340.9311 7480518 258.7923  17.0746  1.96374349256423

Отслеживайте SL-6 R/B(2) в реальном времени с AllMySat

Download on the App Store